owner,sensor,date,latitude,longitude,vertical_datum,sea_water_practical_salinity,qcFlag 
COMPS,ioos:station:USF.COMPS:C13:1,2019-07-01T00:35:00,26.0630,-83.0730,1.0,35.2,11111222 
COMPS,ioos:station:USF.COMPS:C13:1,2019-07-01T01:35:00,26.0630,-83.0730,1.0,35.1,11111222 
COMPS,ioos:station:USF.COMPS:C13:1,2019-07-01T02:35:00,26.0630,-83.0730,1.0,35.07,11111222 
COMPS,ioos:station:USF.COMPS:C13:1,2019-07-01T03:35:00,26.0630,-83.0730,1.0,35.04,11111222 
COMPS,ioos:station:USF.COMPS:C13:1,2019-07-01T04:35:00,26.0630,-83.0730,1.0,35.03,11111222 
COMPS,ioos:station:USF.COMPS:C13:1,2019-07-01T05:35:00,26.0630,-83.0730,1.0,35.07,11111222 
COMPS,ioos:station:USF.COMPS:C13:1,2019-07-01T06:35:00,26.0630,-83.0730,1.0,35.06,11111222 
COMPS,ioos:station:USF.COMPS:C13:1,2019-07-01T07:35:00,26.0630,-83.0730,1.0,35.07,11111222 
COMPS,ioos:station:USF.COMPS:C13:1,2019-07-01T08:35:00,26.0630,-83.0730,1.0,35.07,11111222 
COMPS,ioos:station:USF.COMPS:C13:1,2019-07-01T09:35:00,26.0630,-83.0730,1.0,35.02,11111222 
COMPS,ioos:station:USF.COMPS:C13:1,2019-07-01T10:35:00,26.0630,-83.0730,1.0,35.05,11111222 
COMPS,ioos:station:USF.COMPS:C13:1,2019-07-01T11:35:00,26.0630,-83.0730,1.0,35.01,11111222 
COMPS,ioos:station:USF.COMPS:C13:1,2019-07-01T12:35:00,26.0630,-83.0730,1.0,35.0,11111222 
COMPS,ioos:station:USF.COMPS:C13:1,2019-07-01T13:35:00,26.0630,-83.0730,1.0,35.05,11111222 
COMPS,ioos:station:USF.COMPS:C13:1,2019-07-01T15:35:00,26.0630,-83.0730,1.0,35.13,11111222 
COMPS,ioos:station:USF.COMPS:C13:1,2019-07-01T16:35:00,26.0630,-83.0730,1.0,35.21,11111222 
COMPS,ioos:station:USF.COMPS:C13:1,2019-07-01T17:35:00,26.0630,-83.0730,1.0,35.15,11111222 
COMPS,ioos:station:USF.COMPS:C13:1,2019-07-01T18:35:00,26.0630,-83.0730,1.0,35.11,11111222 
COMPS,ioos:station:USF.COMPS:C13:1,2019-07-01T19:35:00,26.0630,-83.0730,1.0,35.17,11111222 
COMPS,ioos:station:USF.COMPS:C13:1,2019-07-01T20:35:00,26.0630,-83.0730,1.0,35.13,11111222 
COMPS,ioos:station:USF.COMPS:C13:1,2019-07-01T21:35:00,26.0630,-83.0730,1.0,35.04,11111222 
COMPS,ioos:station:USF.COMPS:C13:1,2019-07-01T22:35:00,26.0630,-83.0730,1.0,35.11,11111222 
COMPS,ioos:station:USF.COMPS:C13:1,2019-07-01T23:35:00,26.0630,-83.0730,1.0,35.1,11111222 
COMPS,ioos:station:USF.COMPS:C13:1,2019-07-02T00:35:00,26.0630,-83.0730,1.0,35.06,11111222 
COMPS,ioos:station:USF.COMPS:C13:1,2019-07-02T01:35:00,26.0630,-83.0730,1.0,35.08,11111222 
COMPS,ioos:station:USF.COMPS:C13:1,2019-07-02T02:35:00,26.0630,-83.0730,1.0,35.08,11111222 
COMPS,ioos:station:USF.COMPS:C13:1,2019-07-02T03:35:00,26.0630,-83.0730,1.0,35.12,11111222 
COMPS,ioos:station:USF.COMPS:C13:1,2019-07-02T04:35:00,26.0630,-83.0730,1.0,35.09,11111222 
COMPS,ioos:station:USF.COMPS:C13:1,2019-07-02T05:35:00,26.0630,-83.0730,1.0,35.1,11111222 
COMPS,ioos:station:USF.COMPS:C13:1,2019-07-02T06:35:00,26.0630,-83.0730,1.0,35.09,11111222 
COMPS,ioos:station:USF.COMPS:C13:1,2019-07-02T07:35:00,26.0630,-83.0730,1.0,35.06,11111222 
COMPS,ioos:station:USF.COMPS:C13:1,2019-07-02T08:35:00,26.0630,-83.0730,1.0,35.09,11111222 
COMPS,ioos:station:USF.COMPS:C13:1,2019-07-02T09:35:00,26.0630,-83.0730,1.0,35.06,11111222 
COMPS,ioos:station:USF.COMPS:C13:1,2019-07-02T10:35:00,26.0630,-83.0730,1.0,35.05,11111222 
COMPS,ioos:station:USF.COMPS:C13:1,2019-07-02T11:35:00,26.0630,-83.0730,1.0,35.08,11111222 
COMPS,ioos:station:USF.COMPS:C13:1,2019-07-02T12:35:00,26.0630,-83.0730,1.0,35.04,11111222 
COMPS,ioos:station:USF.COMPS:C13:1,2019-07-02T13:35:00,26.0630,-83.0730,1.0,35.09,11111222 
COMPS,ioos:station:USF.COMPS:C13:1,2019-07-02T14:35:00,26.0630,-83.0730,1.0,35.03,11111222 
COMPS,ioos:station:USF.COMPS:C13:1,2019-07-02T15:35:00,26.0630,-83.0730,1.0,35.1,11111222 
COMPS,ioos:station:USF.COMPS:C13:1,2019-07-02T16:35:00,26.0630,-83.0730,1.0,35.07,11111222 
COMPS,ioos:station:USF.COMPS:C13:1,2019-07-02T17:35:00,26.0630,-83.0730,1.0,35.04,11111222 
COMPS,ioos:station:USF.COMPS:C13:1,2019-07-02T18:35:00,26.0630,-83.0730,1.0,35.03,11111222 
COMPS,ioos:station:USF.COMPS:C13:1,2019-07-02T19:35:00,26.0630,-83.0730,1.0,35.09,11111222 
COMPS,ioos:station:USF.COMPS:C13:1,2019-07-02T20:35:00,26.0630,-83.0730,1.0,35.06,11111222 
COMPS,ioos:station:USF.COMPS:C13:1,2019-07-02T21:35:00,26.0630,-83.0730,1.0,35.05,11111222 
COMPS,ioos:station:USF.COMPS:C13:1,2019-07-02T22:35:00,26.0630,-83.0730,1.0,35.12,11111222 
COMPS,ioos:station:USF.COMPS:C13:1,2019-07-02T23:35:00,26.0630,-83.0730,1.0,35.07,11111222 
COMPS,ioos:station:USF.COMPS:C13:1,2019-07-03T00:35:00,26.0630,-83.0730,1.0,35.09,11111222 
COMPS,ioos:station:USF.COMPS:C13:1,2019-07-03T01:35:00,26.0630,-83.0730,1.0,35.14,11111222 
COMPS,ioos:station:USF.COMPS:C13:1,2019-07-03T02:35:00,26.0630,-83.0730,1.0,35.11,11111222 
COMPS,ioos:station:USF.COMPS:C13:1,2019-07-03T03:35:00,26.0630,-83.0730,1.0,35.14,11111222 
COMPS,ioos:station:USF.COMPS:C13:1,2019-07-03T04:35:00,26.0630,-83.0730,1.0,35.13,11111222 
COMPS,ioos:station:USF.COMPS:C13:1,2019-07-03T05:35:00,26.0630,-83.0730,1.0,35.11,11111222 
COMPS,ioos:station:USF.COMPS:C13:1,2019-07-03T06:35:00,26.0630,-83.0730,1.0,35.07,11111222 
COMPS,ioos:station:USF.COMPS:C13:1,2019-07-03T07:35:00,26.0630,-83.0730,1.0,35.09,11111222 
COMPS,ioos:station:USF.COMPS:C13:1,2019-07-03T08:35:00,26.0630,-83.0730,1.0,35.08,11111222 
COMPS,ioos:station:USF.COMPS:C13:1,2019-07-03T09:35:00,26.0630,-83.0730,1.0,35.08,11111222 
COMPS,ioos:station:USF.COMPS:C13:1,2019-07-03T10:35:00,26.0630,-83.0730,1.0,35.09,11111222 
COMPS,ioos:station:USF.COMPS:C13:1,2019-07-03T11:35:00,26.0630,-83.0730,1.0,35.1,11111222 
COMPS,ioos:station:USF.COMPS:C13:1,2019-07-03T12:35:00,26.0630,-83.0730,1.0,35.05,11111222 
COMPS,ioos:station:USF.COMPS:C13:1,2019-07-03T13:35:00,26.0630,-83.0730,1.0,35.05,11111222 
COMPS,ioos:station:USF.COMPS:C13:1,2019-07-03T14:35:00,26.0630,-83.0730,1.0,35.09,11111222 
COMPS,ioos:station:USF.COMPS:C13:1,2019-07-03T15:35:00,26.0630,-83.0730,1.0,35.04,11111222 
COMPS,ioos:station:USF.COMPS:C13:1,2019-07-03T16:35:00,26.0630,-83.0730,1.0,35.08,11111222 
COMPS,ioos:station:USF.COMPS:C13:1,2019-07-03T17:35:00,26.0630,-83.0730,1.0,35.11,11111222 
COMPS,ioos:station:USF.COMPS:C13:1,2019-07-03T18:35:00,26.0630,-83.0730,1.0,35.05,11111222 
COMPS,ioos:station:USF.COMPS:C13:1,2019-07-03T19:35:00,26.0630,-83.0730,1.0,35.08,11111222 
COMPS,ioos:station:USF.COMPS:C13:1,2019-07-03T20:35:00,26.0630,-83.0730,1.0,35.11,11111222 
COMPS,ioos:station:USF.COMPS:C13:1,2019-07-03T21:35:00,26.0630,-83.0730,1.0,35.07,11111222 
COMPS,ioos:station:USF.COMPS:C13:1,2019-07-03T22:35:00,26.0630,-83.0730,1.0,35.14,11111222 
COMPS,ioos:station:USF.COMPS:C13:1,2019-07-03T23:35:00,26.0630,-83.0730,1.0,35.19,11111222 
COMPS,ioos:station:USF.COMPS:C13:1,2019-07-04T00:35:00,26.0630,-83.0730,1.0,35.2,11111222 
COMPS,ioos:station:USF.COMPS:C13:1,2019-07-04T01:35:00,26.0630,-83.0730,1.0,35.24,11111222 
COMPS,ioos:station:USF.COMPS:C13:1,2019-07-04T02:35:00,26.0630,-83.0730,1.0,35.26,11111222 
COMPS,ioos:station:USF.COMPS:C13:1,2019-07-04T03:35:00,26.0630,-83.0730,1.0,35.25,11111222 
COMPS,ioos:station:USF.COMPS:C13:1,2019-07-04T04:35:00,26.0630,-83.0730,1.0,35.19,11111222 
COMPS,ioos:station:USF.COMPS:C13:1,2019-07-04T05:35:00,26.0630,-83.0730,1.0,35.15,11111222 
COMPS,ioos:station:USF.COMPS:C13:1,2019-07-04T06:35:00,26.0630,-83.0730,1.0,35.14,11111222 
COMPS,ioos:station:USF.COMPS:C13:1,2019-07-04T07:35:00,26.0630,-83.0730,1.0,35.1,11111222 
COMPS,ioos:station:USF.COMPS:C13:1,2019-07-04T08:35:00,26.0630,-83.0730,1.0,35.14,11111222 
COMPS,ioos:station:USF.COMPS:C13:1,2019-07-04T09:35:00,26.0630,-83.0730,1.0,35.08,11111222 
COMPS,ioos:station:USF.COMPS:C13:1,2019-07-04T10:35:00,26.0630,-83.0730,1.0,35.09,11111222 
COMPS,ioos:station:USF.COMPS:C13:1,2019-07-04T11:35:00,26.0630,-83.0730,1.0,35.1,11111222 
COMPS,ioos:station:USF.COMPS:C13:1,2019-07-04T12:35:00,26.0630,-83.0730,1.0,35.09,11111222 
COMPS,ioos:station:USF.COMPS:C13:1,2019-07-04T13:35:00,26.0630,-83.0730,1.0,35.08,11111222 
COMPS,ioos:station:USF.COMPS:C13:1,2019-07-04T14:35:00,26.0630,-83.0730,1.0,35.13,11111222 
COMPS,ioos:station:USF.COMPS:C13:1,2019-07-04T15:35:00,26.0630,-83.0730,1.0,35.1,11111222 
COMPS,ioos:station:USF.COMPS:C13:1,2019-07-04T16:35:00,26.0630,-83.0730,1.0,35.1,11111222 
COMPS,ioos:station:USF.COMPS:C13:1,2019-07-04T17:35:00,26.0630,-83.0730,1.0,35.1,11111222 
COMPS,ioos:station:USF.COMPS:C13:1,2019-07-04T18:35:00,26.0630,-83.0730,1.0,35.17,11111222 
COMPS,ioos:station:USF.COMPS:C13:1,2019-07-04T19:35:00,26.0630,-83.0730,1.0,35.25,11111222 
COMPS,ioos:station:USF.COMPS:C13:1,2019-07-04T20:35:00,26.0630,-83.0730,1.0,35.21,11111222 
COMPS,ioos:station:USF.COMPS:C13:1,2019-07-04T21:35:00,26.0630,-83.0730,1.0,35.26,11111222 
COMPS,ioos:station:USF.COMPS:C13:1,2019-07-04T22:35:00,26.0630,-83.0730,1.0,35.35,11111222 
COMPS,ioos:station:USF.COMPS:C13:1,2019-07-04T23:35:00,26.0630,-83.0730,1.0,35.36,11111222 
COMPS,ioos:station:USF.COMPS:C13:1,2019-07-05T00:35:00,26.0630,-83.0730,1.0,35.47,11111222 
COMPS,ioos:station:USF.COMPS:C13:1,2019-07-05T01:35:00,26.0630,-83.0730,1.0,35.45,11111222 
COMPS,ioos:station:USF.COMPS:C13:1,2019-07-05T02:35:00,26.0630,-83.0730,1.0,35.42,11111222 
COMPS,ioos:station:USF.COMPS:C13:1,2019-07-05T03:35:00,26.0630,-83.0730,1.0,35.32,11111222 
COMPS,ioos:station:USF.COMPS:C13:1,2019-07-05T04:35:00,26.0630,-83.0730,1.0,35.24,11111222 
COMPS,ioos:station:USF.COMPS:C13:1,2019-07-05T05:35:00,26.0630,-83.0730,1.0,35.22,11111222 
COMPS,ioos:station:USF.COMPS:C13:1,2019-07-05T06:35:00,26.0630,-83.0730,1.0,35.17,11111222 
COMPS,ioos:station:USF.COMPS:C13:1,2019-07-05T07:35:00,26.0630,-83.0730,1.0,35.17,11111222 
COMPS,ioos:station:USF.COMPS:C13:1,2019-07-05T08:35:00,26.0630,-83.0730,1.0,35.11,11111222 
COMPS,ioos:station:USF.COMPS:C13:1,2019-07-05T09:35:00,26.0630,-83.0730,1.0,35.15,11111222 
COMPS,ioos:station:USF.COMPS:C13:1,2019-07-05T10:35:00,26.0630,-83.0730,1.0,35.1,11111222 
COMPS,ioos:station:USF.COMPS:C13:1,2019-07-05T11:35:00,26.0630,-83.0730,1.0,35.16,11111222 
COMPS,ioos:station:USF.COMPS:C13:1,2019-07-05T12:35:00,26.0630,-83.0730,1.0,35.12,11111222 
COMPS,ioos:station:USF.COMPS:C13:1,2019-07-05T13:35:00,26.0630,-83.0730,1.0,35.14,11111222 
COMPS,ioos:station:USF.COMPS:C13:1,2019-07-05T14:35:00,26.0630,-83.0730,1.0,35.13,11111222 
COMPS,ioos:station:USF.COMPS:C13:1,2019-07-05T15:35:00,26.0630,-83.0730,1.0,35.1,11111222 
COMPS,ioos:station:USF.COMPS:C13:1,2019-07-05T16:35:00,26.0630,-83.0730,1.0,35.12,11111222 
COMPS,ioos:station:USF.COMPS:C13:1,2019-07-05T17:35:00,26.0630,-83.0730,1.0,35.14,11111222 
COMPS,ioos:station:USF.COMPS:C13:1,2019-07-05T18:35:00,26.0630,-83.0730,1.0,35.13,11111222 
COMPS,ioos:station:USF.COMPS:C13:1,2019-07-05T19:35:00,26.0630,-83.0730,1.0,35.11,11111222 
COMPS,ioos:station:USF.COMPS:C13:1,2019-07-05T20:35:00,26.0630,-83.0730,1.0,35.15,11111222 
COMPS,ioos:station:USF.COMPS:C13:1,2019-07-05T21:35:00,26.0630,-83.0730,1.0,35.14,11111222 
COMPS,ioos:station:USF.COMPS:C13:1,2019-07-05T22:35:00,26.0630,-83.0730,1.0,35.14,11111222 
COMPS,ioos:station:USF.COMPS:C13:1,2019-07-05T23:35:00,26.0630,-83.0730,1.0,35.21,11111222 
COMPS,ioos:station:USF.COMPS:C13:1,2019-07-06T00:35:00,26.0630,-83.0730,1.0,35.24,11111222 
COMPS,ioos:station:USF.COMPS:C13:1,2019-07-06T01:35:00,26.0630,-83.0730,1.0,35.27,11111222 
COMPS,ioos:station:USF.COMPS:C13:1,2019-07-06T02:35:00,26.0630,-83.0730,1.0,35.2,11111222 
COMPS,ioos:station:USF.COMPS:C13:1,2019-07-06T03:35:00,26.0630,-83.0730,1.0,35.2,11111222 
COMPS,ioos:station:USF.COMPS:C13:1,2019-07-06T04:35:00,26.0630,-83.0730,1.0,35.19,11111222 
COMPS,ioos:station:USF.COMPS:C13:1,2019-07-06T05:35:00,26.0630,-83.0730,1.0,35.14,11111222 
COMPS,ioos:station:USF.COMPS:C13:1,2019-07-06T06:35:00,26.0630,-83.0730,1.0,35.19,11111222 
COMPS,ioos:station:USF.COMPS:C13:1,2019-07-06T07:35:00,26.0630,-83.0730,1.0,35.16,11111222 
COMPS,ioos:station:USF.COMPS:C13:1,2019-07-06T08:35:00,26.0630,-83.0730,1.0,35.05,11111222 
COMPS,ioos:station:USF.COMPS:C13:1,2019-07-06T09:35:00,26.0630,-83.0730,1.0,35.11,11111222 
COMPS,ioos:station:USF.COMPS:C13:1,2019-07-06T10:35:00,26.0630,-83.0730,1.0,35.14,11111222 
COMPS,ioos:station:USF.COMPS:C13:1,2019-07-06T11:35:00,26.0630,-83.0730,1.0,35.09,11111222 
COMPS,ioos:station:USF.COMPS:C13:1,2019-07-06T12:35:00,26.0630,-83.0730,1.0,35.15,11111222 
COMPS,ioos:station:USF.COMPS:C13:1,2019-07-06T13:35:00,26.0630,-83.0730,1.0,35.16,11111222 
COMPS,ioos:station:USF.COMPS:C13:1,2019-07-06T14:35:00,26.0630,-83.0730,1.0,35.16,11111222 
COMPS,ioos:station:USF.COMPS:C13:1,2019-07-06T15:35:00,26.0630,-83.0730,1.0,35.14,11111222 
COMPS,ioos:station:USF.COMPS:C13:1,2019-07-06T16:35:00,26.0630,-83.0730,1.0,35.14,11111222 
COMPS,ioos:station:USF.COMPS:C13:1,2019-07-06T17:35:00,26.0630,-83.0730,1.0,35.14,11111222 
COMPS,ioos:station:USF.COMPS:C13:1,2019-07-06T18:35:00,26.0630,-83.0730,1.0,35.13,11111222 
COMPS,ioos:station:USF.COMPS:C13:1,2019-07-06T19:35:00,26.0630,-83.0730,1.0,35.15,11111222 
COMPS,ioos:station:USF.COMPS:C13:1,2019-07-06T20:35:00,26.0630,-83.0730,1.0,35.1,11111222 
COMPS,ioos:station:USF.COMPS:C13:1,2019-07-06T21:35:00,26.0630,-83.0730,1.0,35.13,11111222 
COMPS,ioos:station:USF.COMPS:C13:1,2019-07-06T22:35:00,26.0630,-83.0730,1.0,35.11,11111222 
COMPS,ioos:station:USF.COMPS:C13:1,2019-07-06T23:35:00,26.0630,-83.0730,1.0,35.12,11111222 
COMPS,ioos:station:USF.COMPS:C13:1,2019-07-07T00:35:00,26.0630,-83.0730,1.0,35.15,11111222 
COMPS,ioos:station:USF.COMPS:C13:1,2019-07-07T01:35:00,26.0630,-83.0730,1.0,35.16,11111222 
COMPS,ioos:station:USF.COMPS:C13:1,2019-07-07T02:35:00,26.0630,-83.0730,1.0,35.2,11111222 
COMPS,ioos:station:USF.COMPS:C13:1,2019-07-07T03:35:00,26.0630,-83.0730,1.0,35.15,11111222 
COMPS,ioos:station:USF.COMPS:C13:1,2019-07-07T04:35:00,26.0630,-83.0730,1.0,35.21,11111222 
COMPS,ioos:station:USF.COMPS:C13:1,2019-07-07T05:35:00,26.0630,-83.0730,1.0,35.15,11111222 
COMPS,ioos:station:USF.COMPS:C13:1,2019-07-07T06:35:00,26.0630,-83.0730,1.0,35.16,11111222 
COMPS,ioos:station:USF.COMPS:C13:1,2019-07-07T07:35:00,26.0630,-83.0730,1.0,35.11,11111222 
COMPS,ioos:station:USF.COMPS:C13:1,2019-07-07T08:35:00,26.0630,-83.0730,1.0,35.13,11111222 
COMPS,ioos:station:USF.COMPS:C13:1,2019-07-07T09:35:00,26.0630,-83.0730,1.0,35.12,11111222 
COMPS,ioos:station:USF.COMPS:C13:1,2019-07-07T10:35:00,26.0630,-83.0730,1.0,35.14,11111222 
COMPS,ioos:station:USF.COMPS:C13:1,2019-07-07T11:35:00,26.0630,-83.0730,1.0,35.14,11111222 
COMPS,ioos:station:USF.COMPS:C13:1,2019-07-07T12:35:00,26.0630,-83.0730,1.0,35.19,11111222 
COMPS,ioos:station:USF.COMPS:C13:1,2019-07-07T13:35:00,26.0630,-83.0730,1.0,35.19,11111222 
COMPS,ioos:station:USF.COMPS:C13:1,2019-07-07T14:35:00,26.0630,-83.0730,1.0,35.17,11111222 
COMPS,ioos:station:USF.COMPS:C13:1,2019-07-07T15:35:00,26.0630,-83.0730,1.0,35.17,11111222 
COMPS,ioos:station:USF.COMPS:C13:1,2019-07-07T16:35:00,26.0630,-83.0730,1.0,35.17,11111222 
COMPS,ioos:station:USF.COMPS:C13:1,2019-07-07T17:35:00,26.0630,-83.0730,1.0,35.15,11111222 
COMPS,ioos:station:USF.COMPS:C13:1,2019-07-07T18:35:00,26.0630,-83.0730,1.0,35.16,11111222 
COMPS,ioos:station:USF.COMPS:C13:1,2019-07-07T19:35:00,26.0630,-83.0730,1.0,35.15,11111222 
COMPS,ioos:station:USF.COMPS:C13:1,2019-07-07T20:35:00,26.0630,-83.0730,1.0,35.16,11111222 
COMPS,ioos:station:USF.COMPS:C13:1,2019-07-07T21:35:00,26.0630,-83.0730,1.0,35.14,11111222 
COMPS,ioos:station:USF.COMPS:C13:1,2019-07-07T22:35:00,26.0630,-83.0730,1.0,35.19,11111222 
COMPS,ioos:station:USF.COMPS:C13:1,2019-07-07T23:35:00,26.0630,-83.0730,1.0,35.21,11111222 
COMPS,ioos:station:USF.COMPS:C13:1,2019-07-08T00:35:00,26.0630,-83.0730,1.0,35.23,11111222 
COMPS,ioos:station:USF.COMPS:C13:1,2019-07-08T01:35:00,26.0630,-83.0730,1.0,35.18,11111222 
COMPS,ioos:station:USF.COMPS:C13:1,2019-07-08T02:35:00,26.0630,-83.0730,1.0,35.2,11111222 
COMPS,ioos:station:USF.COMPS:C13:1,2019-07-08T03:35:00,26.0630,-83.0730,1.0,35.22,11111222 
COMPS,ioos:station:USF.COMPS:C13:1,2019-07-08T04:35:00,26.0630,-83.0730,1.0,35.21,11111222 
COMPS,ioos:station:USF.COMPS:C13:1,2019-07-08T05:35:00,26.0630,-83.0730,1.0,35.21,11111222 
COMPS,ioos:station:USF.COMPS:C13:1,2019-07-08T06:35:00,26.0630,-83.0730,1.0,35.21,11111222 
COMPS,ioos:station:USF.COMPS:C13:1,2019-07-08T07:35:00,26.0630,-83.0730,1.0,35.16,11111222 
COMPS,ioos:station:USF.COMPS:C13:1,2019-07-08T08:35:00,26.0630,-83.0730,1.0,35.17,11111222 
COMPS,ioos:station:USF.COMPS:C13:1,2019-07-08T09:35:00,26.0630,-83.0730,1.0,35.18,11111222 
COMPS,ioos:station:USF.COMPS:C13:1,2019-07-08T10:35:00,26.0630,-83.0730,1.0,35.2,11111222 
COMPS,ioos:station:USF.COMPS:C13:1,2019-07-08T11:35:00,26.0630,-83.0730,1.0,35.22,11111222 
COMPS,ioos:station:USF.COMPS:C13:1,2019-07-08T12:35:00,26.0630,-83.0730,1.0,35.25,11111222 
COMPS,ioos:station:USF.COMPS:C13:1,2019-07-08T13:35:00,26.0630,-83.0730,1.0,35.27,11111222 
COMPS,ioos:station:USF.COMPS:C13:1,2019-07-08T14:35:00,26.0630,-83.0730,1.0,35.28,11111222 
COMPS,ioos:station:USF.COMPS:C13:1,2019-07-08T15:35:00,26.0630,-83.0730,1.0,35.28,11111222 
COMPS,ioos:station:USF.COMPS:C13:1,2019-07-08T16:35:00,26.0630,-83.0730,1.0,35.29,11111222 
COMPS,ioos:station:USF.COMPS:C13:1,2019-07-08T17:35:00,26.0630,-83.0730,1.0,35.24,11111222 
COMPS,ioos:station:USF.COMPS:C13:1,2019-07-08T18:35:00,26.0630,-83.0730,1.0,35.25,11111222 
COMPS,ioos:station:USF.COMPS:C13:1,2019-07-08T19:35:00,26.0630,-83.0730,1.0,35.28,11111222 
COMPS,ioos:station:USF.COMPS:C13:1,2019-07-08T20:35:00,26.0630,-83.0730,1.0,35.23,11111222 
COMPS,ioos:station:USF.COMPS:C13:1,2019-07-08T21:35:00,26.0630,-83.0730,1.0,35.33,11111222 
COMPS,ioos:station:USF.COMPS:C13:1,2019-07-08T22:35:00,26.0630,-83.0730,1.0,35.38,11111222 
COMPS,ioos:station:USF.COMPS:C13:1,2019-07-08T23:35:00,26.0630,-83.0730,1.0,35.37,11111222 
COMPS,ioos:station:USF.COMPS:C13:1,2019-07-09T00:35:00,26.0630,-83.0730,1.0,35.38,11111222 
COMPS,ioos:station:USF.COMPS:C13:1,2019-07-09T01:35:00,26.0630,-83.0730,1.0,35.43,11111222 
COMPS,ioos:station:USF.COMPS:C13:1,2019-07-09T02:35:00,26.0630,-83.0730,1.0,35.48,11111222 
COMPS,ioos:station:USF.COMPS:C13:1,2019-07-09T03:35:00,26.0630,-83.0730,1.0,35.51,11111222 
COMPS,ioos:station:USF.COMPS:C13:1,2019-07-09T04:35:00,26.0630,-83.0730,1.0,35.53,11111222 
COMPS,ioos:station:USF.COMPS:C13:1,2019-07-09T05:35:00,26.0630,-83.0730,1.0,35.53,11111222 
COMPS,ioos:station:USF.COMPS:C13:1,2019-07-09T06:35:00,26.0630,-83.0730,1.0,35.47,11111222 
COMPS,ioos:station:USF.COMPS:C13:1,2019-07-09T07:35:00,26.0630,-83.0730,1.0,35.41,11111222 
COMPS,ioos:station:USF.COMPS:C13:1,2019-07-09T08:35:00,26.0630,-83.0730,1.0,35.44,11111222 
COMPS,ioos:station:USF.COMPS:C13:1,2019-07-09T09:35:00,26.0630,-83.0730,1.0,35.39,11111222 
COMPS,ioos:station:USF.COMPS:C13:1,2019-07-09T10:35:00,26.0630,-83.0730,1.0,35.4,11111222 
COMPS,ioos:station:USF.COMPS:C13:1,2019-07-09T11:35:00,26.0630,-83.0730,1.0,35.34,11111222 
COMPS,ioos:station:USF.COMPS:C13:1,2019-07-09T12:35:00,26.0630,-83.0730,1.0,35.36,11111222 
COMPS,ioos:station:USF.COMPS:C13:1,2019-07-09T13:35:00,26.0630,-83.0730,1.0,35.3,11111222 
COMPS,ioos:station:USF.COMPS:C13:1,2019-07-09T14:35:00,26.0630,-83.0730,1.0,35.3,11111222 
COMPS,ioos:station:USF.COMPS:C13:1,2019-07-09T15:35:00,26.0630,-83.0730,1.0,35.22,11111222 
COMPS,ioos:station:USF.COMPS:C13:1,2019-07-09T16:35:00,26.0630,-83.0730,1.0,35.29,11111222 
COMPS,ioos:station:USF.COMPS:C13:1,2019-07-09T17:35:00,26.0630,-83.0730,1.0,35.25,11111222 
COMPS,ioos:station:USF.COMPS:C13:1,2019-07-09T18:35:00,26.0630,-83.0730,1.0,35.22,11111222 
COMPS,ioos:station:USF.COMPS:C13:1,2019-07-09T19:35:00,26.0630,-83.0730,1.0,35.21,11111222 
COMPS,ioos:station:USF.COMPS:C13:1,2019-07-09T20:35:00,26.0630,-83.0730,1.0,35.18,11111222 
COMPS,ioos:station:USF.COMPS:C13:1,2019-07-09T21:35:00,26.0630,-83.0730,1.0,35.18,11111222 
COMPS,ioos:station:USF.COMPS:C13:1,2019-07-09T22:35:00,26.0630,-83.0730,1.0,35.25,11111222 
COMPS,ioos:station:USF.COMPS:C13:1,2019-07-09T23:35:00,26.0630,-83.0730,1.0,35.29,11111222 
COMPS,ioos:station:USF.COMPS:C13:1,2019-07-10T00:35:00,26.0630,-83.0730,1.0,35.35,11111222 
COMPS,ioos:station:USF.COMPS:C13:1,2019-07-10T01:35:00,26.0630,-83.0730,1.0,35.35,11111222 
COMPS,ioos:station:USF.COMPS:C13:1,2019-07-10T02:35:00,26.0630,-83.0730,1.0,35.38,11111222 
COMPS,ioos:station:USF.COMPS:C13:1,2019-07-10T03:35:00,26.0630,-83.0730,1.0,35.4,11111222 
COMPS,ioos:station:USF.COMPS:C13:1,2019-07-10T04:35:00,26.0630,-83.0730,1.0,35.41,11111222 
COMPS,ioos:station:USF.COMPS:C13:1,2019-07-10T05:35:00,26.0630,-83.0730,1.0,35.44,11111222 
COMPS,ioos:station:USF.COMPS:C13:1,2019-07-10T06:35:00,26.0630,-83.0730,1.0,35.42,11111222 
COMPS,ioos:station:USF.COMPS:C13:1,2019-07-10T07:35:00,26.0630,-83.0730,1.0,35.44,11111222 
COMPS,ioos:station:USF.COMPS:C13:1,2019-07-10T08:35:00,26.0630,-83.0730,1.0,35.34,11111222 
COMPS,ioos:station:USF.COMPS:C13:1,2019-07-10T09:35:00,26.0630,-83.0730,1.0,35.25,11111222 
COMPS,ioos:station:USF.COMPS:C13:1,2019-07-10T10:35:00,26.0630,-83.0730,1.0,35.2,11111222 
COMPS,ioos:station:USF.COMPS:C13:1,2019-07-10T11:35:00,26.0630,-83.0730,1.0,35.2,11111222 
COMPS,ioos:station:USF.COMPS:C13:1,2019-07-10T12:35:00,26.0630,-83.0730,1.0,35.27,11111222 
COMPS,ioos:station:USF.COMPS:C13:1,2019-07-10T13:35:00,26.0630,-83.0730,1.0,35.29,11111222 
COMPS,ioos:station:USF.COMPS:C13:1,2019-07-10T14:35:00,26.0630,-83.0730,1.0,35.33,11111222 
COMPS,ioos:station:USF.COMPS:C13:1,2019-07-10T15:35:00,26.0630,-83.0730,1.0,35.33,11111222 
COMPS,ioos:station:USF.COMPS:C13:1,2019-07-10T16:35:00,26.0630,-83.0730,1.0,35.32,11111222 
COMPS,ioos:station:USF.COMPS:C13:1,2019-07-10T17:35:00,26.0630,-83.0730,1.0,35.28,11111222 
COMPS,ioos:station:USF.COMPS:C13:1,2019-07-10T18:35:00,26.0630,-83.0730,1.0,35.28,11111222 
COMPS,ioos:station:USF.COMPS:C13:1,2019-07-10T19:35:00,26.0630,-83.0730,1.0,35.19,11111222 
COMPS,ioos:station:USF.COMPS:C13:1,2019-07-10T20:35:00,26.0630,-83.0730,1.0,35.06,11111222 
COMPS,ioos:station:USF.COMPS:C13:1,2019-07-10T21:35:00,26.0630,-83.0730,1.0,35.08,11111222 
COMPS,ioos:station:USF.COMPS:C13:1,2019-07-10T22:35:00,26.0630,-83.0730,1.0,35.09,11111222 
COMPS,ioos:station:USF.COMPS:C13:1,2019-07-10T23:35:00,26.0630,-83.0730,1.0,35.21,11111222 
COMPS,ioos:station:USF.COMPS:C13:1,2019-07-11T00:35:00,26.0630,-83.0730,1.0,35.31,11111222 
COMPS,ioos:station:USF.COMPS:C13:1,2019-07-11T01:35:00,26.0630,-83.0730,1.0,35.36,11111222 
COMPS,ioos:station:USF.COMPS:C13:1,2019-07-11T02:35:00,26.0630,-83.0730,1.0,35.45,11111222 
COMPS,ioos:station:USF.COMPS:C13:1,2019-07-11T03:35:00,26.0630,-83.0730,1.0,35.49,11111222 
COMPS,ioos:station:USF.COMPS:C13:1,2019-07-11T04:35:00,26.0630,-83.0730,1.0,35.52,11111222 
COMPS,ioos:station:USF.COMPS:C13:1,2019-07-11T05:35:00,26.0630,-83.0730,1.0,35.46,11111222 
COMPS,ioos:station:USF.COMPS:C13:1,2019-07-11T06:35:00,26.0630,-83.0730,1.0,35.52,11111222 
COMPS,ioos:station:USF.COMPS:C13:1,2019-07-11T07:35:00,26.0630,-83.0730,1.0,35.49,11111222 
COMPS,ioos:station:USF.COMPS:C13:1,2019-07-11T08:35:00,26.0630,-83.0730,1.0,35.45,11111222 
COMPS,ioos:station:USF.COMPS:C13:1,2019-07-11T09:35:00,26.0630,-83.0730,1.0,35.33,11111222 
COMPS,ioos:station:USF.COMPS:C13:1,2019-07-11T10:35:00,26.0630,-83.0730,1.0,35.32,11111222 
COMPS,ioos:station:USF.COMPS:C13:1,2019-07-11T11:35:00,26.0630,-83.0730,1.0,35.33,11111222 
COMPS,ioos:station:USF.COMPS:C13:1,2019-07-11T12:35:00,26.0630,-83.0730,1.0,35.39,11111222 
COMPS,ioos:station:USF.COMPS:C13:1,2019-07-11T13:35:00,26.0630,-83.0730,1.0,35.41,11111222 
COMPS,ioos:station:USF.COMPS:C13:1,2019-07-11T14:35:00,26.0630,-83.0730,1.0,35.61,11111222 
COMPS,ioos:station:USF.COMPS:C13:1,2019-07-11T15:35:00,26.0630,-83.0730,1.0,35.67,11111222 
COMPS,ioos:station:USF.COMPS:C13:1,2019-07-11T16:35:00,26.0630,-83.0730,1.0,35.67,11111222 
COMPS,ioos:station:USF.COMPS:C13:1,2019-07-11T17:35:00,26.0630,-83.0730,1.0,35.76,11111222 
COMPS,ioos:station:USF.COMPS:C13:1,2019-07-11T18:35:00,26.0630,-83.0730,1.0,35.65,11111222 
COMPS,ioos:station:USF.COMPS:C13:1,2019-07-11T19:35:00,26.0630,-83.0730,1.0,35.65,11111222 
COMPS,ioos:station:USF.COMPS:C13:1,2019-07-11T20:35:00,26.0630,-83.0730,1.0,35.38,11111222 